STARLINK-11287, 60998

Orbit data source: Space-Track

STARLINK-11287, 60998 is a payload satellite owned by SpaceX/Seattle (US) in LEO that was launched on Thu, 05 Sep 2024 UTC via an FALCON 9 launch vehicle from the Air Force Eastern Test Range (AFETR). Payload-class satellites include a variety of spacecraft equipped with specific instruments for various scientific and technological missions. These include communications satellites like Starlink; space stations such as the ISS; scientific satellites like the Hubble; Earth observation satellites from companies like Planet Labs, Umbra, and HawkEye 360; GPS; miniature CubeSats for education and research; and military/defense satellites.

Loading next visibility...
Identifier
60998, 2024-158J
Orbit
LEO
Country
Flag of USUS
Related business
Manufacturer
SpaceX/Seattle
Mission
Operational Commercial Communications
Bus & Motor
STARLINK V2MD, Unknown motor
Mass
960 kg wet, ~910 kg dry
Launch date (UTC)
2024-09-05 (1 year ago)
Launch vehicle
FALCON 9
Launch site
Air Force Eastern Test Range (AFETR)
Object type
Payload
Rocket body
Debris
Shape & HBR
Box + 2 Pan, 18.1 m
Radar Cross Section
36.964 m², Large (>1 m²)

Expand to show TLE details & history
Last TLE update: 11 hours ago

TLE from 11 hours ago
0 STARLINK-11287
1 60998U 24158J   25302.47204611 -.00001324  00000-0 -60703-5 0  9992
2 60998  53.1594 208.2483 0001138  77.8703 282.2443 15.69717736 66978
Epoch: 2025-10-29T11:19Z
TLE epoch observation values (Epoch: 2025-10-29T11:19:44.783Z)
Latitude
0.00001°
Longitude
0.26701°
Altitude
360.457 km
Speed
7.694 km/s
True Right ascension
13h 52m 59s
True Declination
0° 00' 00"
Sunlit
Object was in daylight at epoch
Visualization orbit readout
Latitude
Unknown
Longitude
Unknown
Altitude
Unknown
Speed
Unknown
Apparent Right ascension
Unknown
Apparent Declination
Unknown
Sunlit
N/A
Visualization observer readout
Local Sidereal Time
17:42:25
Azimuth
Unknown
Elevation
Unknown
Doppler factor
Unknown
Orbital elements
Apogee altitude
360.732 km
Perigee altitude
359.199 km
Semi-major axis
6,738.102 km
Eccentricity
0.00011
Inclination
53.1594°
RAAN
208.2483°
Arg. of periapsis
77.8703°
True anomaly
282.23156°
Mean anomaly
282.2443°
Eccentric anomaly
282.23793°
Mean motion
3.92407 °/min
Orbital period
91.74 mins
BSTAR
-0.0000060703
Loading maneuver chart data...
Computing Atmospheric mass density...
Loading historical data...
Loading historical data...
Loading historical data...
Loading historical data...
Loading historical data...
Loading historical data...
Loading historical data...

Documentation

Showing up to 5 results
|